Time,TemperatureF,DewpointF,PressureIn,WindDirection,WindDirectionDegrees,WindSpeedMPH,WindSpeedGustMPH,Humidity,HourlyPrecipIn,Conditions,Clouds,dailyrainin,SoftwareType,DateUTC
2015-04-25 00:04:00,59.9,48.1,29.89,SE,135,2.3,2.3,65,0.00,CLR,,0.00,WeatherDisplay:10.37,2015-04-25 04:04:00,
2015-04-25 00:09:00,59.9,48.1,29.89,SSE,158,4.6,4.6,65,0.00,CLR,,0.00,WeatherDisplay:10.37,2015-04-25 04:09:00,
2015-04-25 00:14:00,59.7,48.3,29.89,ESE,112,2.7,2.7,66,0.00,CLR,,0.00,WeatherDisplay:10.37,2015-04-25 04:14:00,
2015-04-25 00:19:00,59.7,48.3,29.89,SSE,158,3.5,3.5,66,0.00,CLR,,0.00,WeatherDisplay:10.37,2015-04-25 04:19:00,
2015-04-25 00:24:00,59.7,48.7,29.89,SSE,158,3.5,3.5,67,0.00,CLR,,0.00,WeatherDisplay:10.37,2015-04-25 04:24:00,
2015-04-25 00:29:00,59.5,48.9,29.88,SSE,158,2.3,2.3,68,0.00,CLR,,0.00,WeatherDisplay:10.37,2015-04-25 04:29:00,
2015-04-25 00:34:00,59.5,48.9,29.88,SSW,202,3.5,3.5,68,0.00,CLR,,0.00,WeatherDisplay:10.37,2015-04-25 04:34:00,
2015-04-25 00:44:00,59.5,49.3,29.88,SSE,158,4.6,4.6,69,0.00,CLR,,0.00,WeatherDisplay:10.37,2015-04-25 04:44:00,
2015-04-25 00:49:00,59.5,49.3,29.88,South,180,3.5,3.5,69,0.00,CLR,,0.00,WeatherDisplay:10.37,2015-04-25 04:49:00,
2015-04-25 00:54:00,59.5,49.7,29.88,SE,135,3.5,3.5,70,0.00,CLR,,0.00,WeatherDisplay:10.37,2015-04-25 04:54:00,
2015-04-25 00:59:00,59.5,49.7,29.88,SE,135,4.2,4.2,70,0.00,CLR,,0.00,WeatherDisplay:10.37,2015-04-25 04:59:00,
2015-04-25 01:04:00,59.5,49.7,29.88,SE,135,5.8,5.8,70,0.00,CLR,,0.00,WeatherDisplay:10.37,2015-04-25 05:04:00,
2015-04-25 01:09:00,59.5,49.7,29.88,SW,225,3.2,3.2,70,0.00,CLR,,0.00,WeatherDisplay:10.37,2015-04-25 05:09:00,
2015-04-25 01:14:00,59.5,49.7,29.88,SW,225,3.5,3.5,70,0.00,CLR,,0.00,WeatherDisplay:10.37,2015-04-25 05:14:00,
2015-04-25 01:19:00,59.7,49.9,29.88,ESE,112,3.5,3.5,70,0.00,CLR,,0.00,WeatherDisplay:10.37,2015-04-25 05:19:00,
2015-04-25 01:24:00,59.7,49.9,29.88,South,180,3.5,3.5,70,0.00,CLR,,0.00,WeatherDisplay:10.37,2015-04-25 05:24:00,
2015-04-25 01:29:00,59.7,49.9,29.89,South,180,3.5,3.5,70,0.00,CLR,,0.00,WeatherDisplay:10.37,2015-04-25 05:29:00,
2015-04-25 01:34:00,59.9,49.7,29.89,SSE,158,1.2,1.2,69,0.00,CLR,,0.00,WeatherDisplay:10.37,2015-04-25 05:34:00,
2015-04-25 01:39:00,59.9,49.7,29.88,SSE,158,3.5,3.5,69,0.00,CLR,,0.00,WeatherDisplay:10.37,2015-04-25 05:39:00,
2015-04-25 01:44:00,59.9,49.7,29.88,SW,225,3.5,3.5,69,0.00,CLR,,0.00,WeatherDisplay:10.37,2015-04-25 05:44:00,
2015-04-25 01:49:00,59.9,49.7,29.88,WSW,248,4.2,4.2,69,0.00,CLR,,0.00,WeatherDisplay:10.37,2015-04-25 05:49:00,
2015-04-25 01:54:00,59.9,50.5,29.88,SW,225,0.0,0.0,71,0.00,CLR,,0.00,WeatherDisplay:10.37,2015-04-25 05:54:00,
2015-04-25 01:59:00,59.7,49.9,29.88,SE,135,2.3,2.3,70,0.00,CLR,,0.00,WeatherDisplay:10.37,2015-04-25 05:59:00,
2015-04-25 02:04:00,59.7,50.3,29.88,SW,225,3.5,3.5,71,0.00,CLR,,0.00,WeatherDisplay:10.37,2015-04-25 06:04:00,
2015-04-25 02:09:00,59.7,50.3,29.88,WSW,248,1.2,1.2,71,0.00,CLR,,0.00,WeatherDisplay:10.37,2015-04-25 06:09:00,
2015-04-25 02:14:00,59.5,50.1,29.88,South,180,2.3,2.3,71,0.00,CLR,,0.00,WeatherDisplay:10.37,2015-04-25 06:14:00,
2015-04-25 02:19:00,59.5,50.1,29.88,SSE,158,3.5,3.5,71,0.00,CLR,,0.00,WeatherDisplay:10.37,2015-04-25 06:19:00,
2015-04-25 02:24:00,59.5,50.1,29.88,SE,135,3.5,3.5,71,0.00,CLR,,0.00,WeatherDisplay:10.37,2015-04-25 06:24:00,
2015-04-25 02:29:00,59.5,50.1,29.86,ESE,112,2.3,2.3,71,0.00,CLR,,0.00,WeatherDisplay:10.37,2015-04-25 06:29:00,
2015-04-25 02:34:00,59.5,50.1,29.86,SSE,158,4.6,4.6,71,0.00,CLR,,0.00,WeatherDisplay:10.37,2015-04-25 06:34:00,
2015-04-25 02:39:00,59.5,50.5,29.85,SSE,158,1.7,1.7,72,0.00,CLR,,0.00,WeatherDisplay:10.37,2015-04-25 06:39:00,
2015-04-25 02:44:00,59.5,50.1,29.85,SSE,158,2.3,2.3,71,0.00,CLR,,0.00,WeatherDisplay:10.37,2015-04-25 06:44:00,
2015-04-25 02:49:00,59.4,50.4,29.85,ESE,112,2.3,2.3,72,0.00,CLR,,0.00,WeatherDisplay:10.37,2015-04-25 06:49:00,
2015-04-25 02:54:00,59.4,50.4,29.85,ESE,112,3.2,3.2,72,0.00,CLR,,0.00,WeatherDisplay:10.37,2015-04-25 06:54:00,
2015-04-25 02:59:00,59.4,50.4,29.85,South,180,3.5,3.5,72,0.00,CLR,,0.00,WeatherDisplay:10.37,2015-04-25 06:59:00,
2015-04-25 03:04:00,59.4,50.4,29.84,SSE,158,2.3,2.3,72,0.00,CLR,,0.00,WeatherDisplay:10.37,2015-04-25 07:04:00,
2015-04-25 03:09:00,59.2,50.2,29.84,SSE,158,3.2,3.2,72,0.00,CLR,,0.00,WeatherDisplay:10.37,2015-04-25 07:09:00,
2015-04-25 03:14:00,59.2,50.5,29.84,SE,135,1.2,0.0,73,0.00,CLR,,0.00,WeatherDisplay:10.37,2015-04-25 07:14:00,
2015-04-25 03:19:00,59.0,50.0,29.84,SSE,158,3.5,3.5,72,0.00,CLR,,0.00,WeatherDisplay:10.37,2015-04-25 07:19:00,
2015-04-25 03:24:00,59.0,50.0,29.84,SSE,158,3.5,3.5,72,0.00,CLR,,0.00,WeatherDisplay:10.37,2015-04-25 07:24:00,
2015-04-25 03:29:00,59.0,50.4,29.84,SE,135,1.2,1.2,73,0.00,CLR,,0.00,WeatherDisplay:10.37,2015-04-25 07:29:00,
2015-04-25 03:34:00,59.0,50.4,29.84,South,180,2.3,2.3,73,0.00,CLR,,0.00,WeatherDisplay:10.37,2015-04-25 07:34:00,
2015-04-25 03:39:00,58.8,50.2,29.84,SE,135,2.3,2.3,73,0.00,CLR,,0.00,WeatherDisplay:10.37,2015-04-25 07:39:00,
2015-04-25 03:44:00,58.8,50.5,29.84,ESE,112,0.0,0.0,74,0.00,CLR,,0.00,WeatherDisplay:10.37,2015-04-25 07:44:00,
2015-04-25 03:49:00,58.8,50.5,29.84,SE,135,2.2,2.2,74,0.00,CLR,,0.00,WeatherDisplay:10.37,2015-04-25 07:49:00,
2015-04-25 03:54:00,58.8,51.2,29.83,South,180,1.2,1.2,76,0.00,CLR,,0.00,WeatherDisplay:10.37,2015-04-25 07:54:00,
2015-04-25 03:59:00,58.6,51.4,29.83,South,180,0.0,0.0,77,0.00,CLR,,0.00,WeatherDisplay:10.37,2015-04-25 07:59:00,
2015-04-25 04:04:00,58.3,51.8,29.83,SSE,158,1.2,1.2,79,0.00,CLR,,0.00,WeatherDisplay:10.37,2015-04-25 08:04:00,
2015-04-25 04:09:00,58.1,52.6,29.83,SW,225,0.0,0.0,82,0.00,CLR,,0.00,WeatherDisplay:10.37,2015-04-25 08:09:00,
2015-04-25 04:14:00,57.7,52.9,29.83,WSW,248,0.0,0.0,84,0.00,CLR,,0.00,WeatherDisplay:10.37,2015-04-25 08:14:00,
2015-04-25 04:19:00,57.6,53.4,29.83,WSW,248,0.0,0.0,86,0.00,CLR,,0.00,WeatherDisplay:10.37,2015-04-25 08:19:00,
2015-04-25 04:24:00,57.2,53.0,29.83,SSE,158,0.0,0.0,86,0.00,CLR,,0.00,WeatherDisplay:10.37,2015-04-25 08:24:00,
2015-04-25 04:29:00,56.8,54.2,29.83,NW,315,1.2,1.3,91,0.00,CLR,,0.00,WeatherDisplay:10.37,2015-04-25 08:29:00,
2015-04-25 04:34:00,56.7,54.7,29.83,NW,315,0.0,0.0,93,0.00,CLR,,0.00,WeatherDisplay:10.37,2015-04-25 08:34:00,
2015-04-25 04:39:00,56.5,54.5,29.84,NW,315,0.0,0.0,93,0.00,CLR,,0.00,WeatherDisplay:10.37,2015-04-25 08:39:00,
2015-04-25 04:44:00,56.3,54.6,29.84,NW,315,0.0,0.0,94,0.00,CLR,,0.00,WeatherDisplay:10.37,2015-04-25 08:44:00,
2015-04-25 04:49:00,56.1,54.7,29.84,NW,315,0.0,0.0,95,0.00,CLR,,0.00,WeatherDisplay:10.37,2015-04-25 08:49:00,
2015-04-25 04:54:00,55.9,54.5,29.85,NW,315,0.0,0.0,95,0.01,RA,,0.01,WeatherDisplay:10.37,2015-04-25 08:54:00,
2015-04-25 04:59:00,55.9,55.1,29.85,NNE,22,0.0,0.0,97,0.01,RA,,0.01,WeatherDisplay:10.37,2015-04-25 08:59:00,
2015-04-25 05:04:00,55.8,55.2,29.86,WNW,292,0.0,0.0,98,0.01,CLR,,0.01,WeatherDisplay:10.37,2015-04-25 09:04:00,
2015-04-25 05:09:00,55.8,55.2,29.86,WNW,292,0.0,0.0,98,0.01,CLR,,0.01,WeatherDisplay:10.37,2015-04-25 09:09:00,
2015-04-25 05:14:00,55.8,55.2,29.86,WNW,292,0.0,0.0,98,0.01,CLR,,0.01,WeatherDisplay:10.37,2015-04-25 09:14:00,
2015-04-25 05:19:00,55.8,55.5,29.86,WNW,292,0.0,0.0,99,0.01,CLR,,0.01,WeatherDisplay:10.37,2015-04-25 09:19:00,
2015-04-25 05:24:00,55.8,55.5,29.86,NE,45,0.0,0.0,99,0.01,CLR,,0.01,WeatherDisplay:10.37,2015-04-25 09:24:00,
2015-04-25 05:29:00,55.6,55.3,29.86,ESE,112,0.0,0.0,99,0.02,RA,,0.02,WeatherDisplay:10.37,2015-04-25 09:29:00,
2015-04-25 05:34:00,55.4,55.1,29.86,ESE,112,3.5,3.5,99,0.02,RA,,0.02,WeatherDisplay:10.37,2015-04-25 09:34:00,
2015-04-25 05:39:00,55.4,55.1,29.84,ESE,112,1.7,1.7,99,0.03,RA,,0.03,WeatherDisplay:10.37,2015-04-25 09:39:00,
2015-04-25 05:44:00,55.4,55.1,29.84,ESE,112,1.2,1.2,99,0.03,RA,,0.03,WeatherDisplay:10.37,2015-04-25 09:44:00,
2015-04-25 05:49:00,55.4,55.1,29.84,South,180,1.2,1.2,99,0.03,,,0.03,WeatherDisplay:10.37,2015-04-25 09:49:00,
2015-04-25 05:54:00,55.4,55.1,29.83,SE,135,2.2,2.2,99,0.02,CLR,,0.03,WeatherDisplay:10.37,2015-04-25 09:54:00,
2015-04-25 05:59:00,55.4,55.1,29.83,SE,135,2.3,2.3,99,0.02,CLR,,0.03,WeatherDisplay:10.37,2015-04-25 09:59:00,
2015-04-25 06:04:00,55.2,54.9,29.83,SSE,158,2.3,2.3,99,0.02,CLR,,0.03,WeatherDisplay:10.37,2015-04-25 10:04:00,
2015-04-25 06:09:00,55.2,54.9,29.83,SSE,158,2.3,2.3,99,0.02,CLR,,0.03,WeatherDisplay:10.37,2015-04-25 10:09:00,
2015-04-25 06:14:00,55.2,54.9,29.84,SSE,158,1.7,1.7,99,0.02,CLR,,0.03,WeatherDisplay:10.37,2015-04-25 10:14:00,
2015-04-25 06:19:00,55.2,54.9,29.84,SSE,158,0.0,0.0,99,0.02,CLR,,0.03,WeatherDisplay:10.37,2015-04-25 10:19:00,
2015-04-25 06:24:00,55.2,54.9,29.84,SSW,202,1.2,1.2,99,0.02,CLR,,0.03,WeatherDisplay:10.37,2015-04-25 10:24:00,
2015-04-25 06:29:00,55.2,54.9,29.84,SSE,158,1.1,1.1,99,0.01,CLR,,0.03,WeatherDisplay:10.37,2015-04-25 10:29:00,
2015-04-25 06:34:00,55.2,54.9,29.84,SSE,158,1.2,1.6,99,0.01,CLR,,0.03,WeatherDisplay:10.37,2015-04-25 10:34:00,
2015-04-25 06:39:00,55.2,54.9,29.84,SSE,158,0.0,0.0,99,0.00,CLR,,0.03,WeatherDisplay:10.37,2015-04-25 10:39:00,
2015-04-25 06:44:00,55.2,54.9,29.84,South,180,2.3,2.3,99,0.00,CLR,,0.03,WeatherDisplay:10.37,2015-04-25 10:44:00,
2015-04-25 06:49:00,55.4,55.1,29.84,SSW,202,1.2,1.2,99,0.00,CLR,,0.03,WeatherDisplay:10.37,2015-04-25 10:49:00,
2015-04-25 06:54:00,55.4,55.1,29.85,ESE,112,2.7,2.7,99,0.00,CLR,,0.03,WeatherDisplay:10.37,2015-04-25 10:54:00,
2015-04-25 06:59:00,55.4,55.1,29.85,ESE,112,3.5,3.5,99,0.00,CLR,,0.03,WeatherDisplay:10.37,2015-04-25 10:59:00,
2015-04-25 07:04:00,55.4,55.1,29.84,SSE,158,2.7,2.7,99,0.00,CLR,,0.03,WeatherDisplay:10.37,2015-04-25 11:04:00,
2015-04-25 07:09:00,55.4,55.1,29.84,SSE,158,2.7,2.7,99,0.00,CLR,,0.03,WeatherDisplay:10.37,2015-04-25 11:09:00,
2015-04-25 07:15:00,55.4,55.1,29.83,SSE,158,3.5,3.5,99,0.00,CLR,,0.03,WeatherDisplay:10.37,2015-04-25 11:15:00,
2015-04-25 07:20:00,55.4,55.1,29.83,South,180,3.5,3.5,99,0.00,CLR,,0.03,WeatherDisplay:10.37,2015-04-25 11:20:00,
2015-04-25 07:25:00,55.6,55.3,29.83,South,180,1.2,0.0,99,0.00,CLR,,0.03,WeatherDisplay:10.37,2015-04-25 11:25:00,
2015-04-25 07:30:00,55.8,55.5,29.84,SSW,202,2.3,2.3,99,0.00,CLR,,0.03,WeatherDisplay:10.37,2015-04-25 11:30:00,
2015-04-25 07:35:00,55.8,55.5,29.84,SSE,158,1.2,1.2,99,0.00,CLR,,0.03,WeatherDisplay:10.37,2015-04-25 11:35:00,
2015-04-25 07:40:00,55.9,55.6,29.85,South,180,1.2,1.2,99,0.00,CLR,,0.03,WeatherDisplay:10.37,2015-04-25 11:40:00,
2015-04-25 07:45:00,55.9,55.6,29.85,SSE,158,1.2,1.2,99,0.00,CLR,,0.03,WeatherDisplay:10.37,2015-04-25 11:45:00,
2015-04-25 07:50:00,55.9,55.6,29.84,SE,135,1.2,1.2,99,0.00,CLR,,0.03,WeatherDisplay:10.37,2015-04-25 11:50:00,
2015-04-25 07:55:00,55.9,55.6,29.84,ESE,112,1.2,1.2,99,0.00,CLR,,0.03,WeatherDisplay:10.37,2015-04-25 11:55:00,
2015-04-25 08:00:00,56.1,55.8,29.84,ESE,112,2.3,2.3,99,0.00,CLR,,0.03,WeatherDisplay:10.37,2015-04-25 12:00:00,
2015-04-25 08:05:00,56.1,55.8,29.82,ESE,112,2.7,2.7,99,0.00,CLR,,0.03,WeatherDisplay:10.37,2015-04-25 12:05:00,
2015-04-25 08:10:00,55.9,55.6,29.82,ESE,112,4.6,4.6,99,0.00,CLR,,0.03,WeatherDisplay:10.37,2015-04-25 12:10:00,
2015-04-25 08:15:00,55.9,55.6,29.81,ESE,112,2.7,2.7,99,0.01,RA,,0.04,WeatherDisplay:10.37,2015-04-25 12:15:00,
2015-04-25 08:20:00,56.1,55.8,29.81,SSE,158,2.3,2.3,99,0.01,RA,,0.04,WeatherDisplay:10.37,2015-04-25 12:20:00,
2015-04-25 08:25:00,56.1,55.8,29.81,South,180,0.0,0.0,99,0.01,CLR,,0.04,WeatherDisplay:10.37,2015-04-25 12:25:00,
2015-04-25 08:30:00,56.3,56.0,29.82,SW,225,0.0,0.0,99,0.01,CLR,,0.04,WeatherDisplay:10.37,2015-04-25 12:30:00,
2015-04-25 08:35:00,56.5,56.2,29.82,SSW,202,0.0,0.0,99,0.01,CLR,,0.04,WeatherDisplay:10.37,2015-04-25 12:35:00,
2015-04-25 08:40:00,56.5,56.2,29.83,SSW,202,1.2,1.2,99,0.01,CLR,,0.04,WeatherDisplay:10.37,2015-04-25 12:40:00,
2015-04-25 08:45:00,56.5,56.2,29.83,West,270,0.0,0.0,99,0.02,RA,,0.05,WeatherDisplay:10.37,2015-04-25 12:45:00,
2015-04-25 08:50:00,56.5,56.2,29.85,WSW,248,1.2,1.2,99,0.04,RA,,0.07,WeatherDisplay:10.37,2015-04-25 12:50:00,
2015-04-25 08:55:00,56.5,56.2,29.85,NE,45,0.0,0.0,99,0.08,RA,,0.11,WeatherDisplay:10.37,2015-04-25 12:55:00,
2015-04-25 09:00:00,56.5,56.2,29.85,NW,315,0.0,0.0,99,0.13,RA,,0.16,WeatherDisplay:10.37,2015-04-25 13:00:00,
2015-04-25 09:05:00,56.3,56.0,29.85,East,90,1.2,1.2,99,0.15,RA,,0.18,WeatherDisplay:10.37,2015-04-25 13:05:00,
2015-04-25 09:10:00,56.3,56.0,29.85,SW,225,1.2,1.2,99,0.17,RA,,0.20,WeatherDisplay:10.37,2015-04-25 13:10:00,
2015-04-25 09:15:00,56.1,55.8,29.86,WNW,292,1.7,1.7,99,0.19,RA,,0.23,WeatherDisplay:10.37,2015-04-25 13:15:00,
2015-04-25 09:20:00,56.1,55.8,29.86,SW,225,0.0,0.0,99,0.23,RA,,0.27,WeatherDisplay:10.37,2015-04-25 13:20:00,
2015-04-25 09:25:00,56.1,55.8,29.86,West,270,0.0,0.0,99,0.27,RA,,0.31,WeatherDisplay:10.37,2015-04-25 13:25:00,
2015-04-25 09:30:00,56.3,56.0,29.87,NW,315,1.2,1.2,99,0.31,RA,,0.35,WeatherDisplay:10.37,2015-04-25 13:30:00,
2015-04-25 09:35:00,56.3,56.0,29.87,WNW,292,2.3,2.3,99,0.35,RA,,0.39,WeatherDisplay:10.37,2015-04-25 13:35:00,
2015-04-25 09:40:00,56.3,56.0,29.86,West,270,3.5,3.5,99,0.38,RA,,0.42,WeatherDisplay:10.37,2015-04-25 13:40:00,
2015-04-25 09:45:00,56.3,56.0,29.86,WNW,292,2.3,2.3,99,0.41,RA,,0.46,WeatherDisplay:10.37,2015-04-25 13:45:00,
2015-04-25 09:50:00,56.5,56.2,29.85,SSW,202,0.0,0.0,99,0.42,RA,,0.49,WeatherDisplay:10.37,2015-04-25 13:50:00,
2015-04-25 09:55:00,56.8,56.5,29.85,SSE,158,0.0,0.0,99,0.41,RA,,0.52,WeatherDisplay:10.37,2015-04-25 13:55:00,
2015-04-25 10:00:00,56.8,56.5,29.85,SSE,158,3.7,3.7,99,0.38,RA,,0.55,WeatherDisplay:10.37,2015-04-25 14:00:00,
2015-04-25 10:05:00,57.0,56.7,29.83,SSE,158,4.7,4.7,99,0.39,RA,,0.57,WeatherDisplay:10.37,2015-04-25 14:05:00,
2015-04-25 10:10:00,57.2,56.9,29.83,SSE,158,4.6,4.6,99,0.38,RA,,0.58,WeatherDisplay:10.37,2015-04-25 14:10:00,
2015-04-25 10:15:00,57.6,57.3,29.82,South,180,2.3,2.3,99,0.36,RA,,0.59,WeatherDisplay:10.37,2015-04-25 14:15:00,
2015-04-25 10:20:00,57.7,57.4,29.82,SSE,158,3.5,3.6,99,0.32,RA,,0.59,WeatherDisplay:10.37,2015-04-25 14:20:00,
2015-04-25 10:25:00,57.7,57.4,29.82,SSW,202,3.5,3.5,99,0.29,RA,,0.60,WeatherDisplay:10.37,2015-04-25 14:25:00,
2015-04-25 10:30:00,58.1,57.8,29.81,ESE,112,3.5,3.5,99,0.25,RA,,0.60,WeatherDisplay:10.37,2015-04-25 14:30:00,
2015-04-25 10:35:00,58.5,58.2,29.81,SE,135,6.9,6.9,99,0.21,,,0.60,WeatherDisplay:10.37,2015-04-25 14:35:00,
2015-04-25 10:40:00,58.5,58.2,29.78,South,180,8.1,8.1,99,0.18,CLR,,0.60,WeatherDisplay:10.37,2015-04-25 14:40:00,
2015-04-25 10:45:00,58.6,58.3,29.78,SSE,158,5.8,5.8,99,0.14,CLR,,0.60,WeatherDisplay:10.37,2015-04-25 14:45:00,
2015-04-25 10:50:00,59.2,58.9,29.75,SSE,158,8.3,8.3,99,0.11,CLR,,0.61,WeatherDisplay:10.37,2015-04-25 14:50:00,
2015-04-25 10:55:00,59.4,59.1,29.75,SE,135,9.4,9.4,99,0.09,RA,,0.61,WeatherDisplay:10.37,2015-04-25 14:55:00,
2015-04-25 11:00:00,60.1,59.8,29.75,SW,225,6.9,6.9,99,0.07,RA,,0.61,WeatherDisplay:10.37,2015-04-25 15:00:00,
2015-04-25 11:05:00,60.6,60.3,29.73,SSE,158,5.8,5.8,99,0.04,CLR,,0.61,WeatherDisplay:10.37,2015-04-25 15:05:00,
2015-04-25 11:10:00,61.0,60.7,29.73,South,180,5.8,5.8,99,0.03,CLR,,0.61,WeatherDisplay:10.37,2015-04-25 15:10:00,
2015-04-25 11:15:00,61.0,60.7,29.76,South,180,5.8,5.8,99,0.02,CLR,,0.61,WeatherDisplay:10.37,2015-04-25 15:15:00,
2015-04-25 11:20:00,61.7,61.4,29.76,ESE,112,4.6,4.6,99,0.02,CLR,,0.61,WeatherDisplay:10.37,2015-04-25 15:20:00,
2015-04-25 11:25:00,62.2,61.9,29.76,ESE,112,3.5,3.5,99,0.01,CLR,,0.61,WeatherDisplay:10.37,2015-04-25 15:25:00,
2015-04-25 11:30:00,62.8,62.5,29.75,SSE,158,5.8,5.8,99,0.01,CLR,,0.61,WeatherDisplay:10.37,2015-04-25 15:30:00,
2015-04-25 11:35:00,64.0,63.7,29.75,WSW,248,5.8,5.8,99,0.01,CLR,,0.61,WeatherDisplay:10.37,2015-04-25 15:35:00,
2015-04-25 11:40:00,64.0,63.7,29.75,South,180,5.8,5.8,99,0.01,CLR,,0.61,WeatherDisplay:10.37,2015-04-25 15:40:00,
2015-04-25 11:45:00,63.7,63.4,29.75,South,180,6.9,6.9,99,0.01,CLR,,0.61,WeatherDisplay:10.37,2015-04-25 15:45:00,
2015-04-25 11:50:00,63.7,63.4,29.75,SE,135,5.8,5.8,99,0.01,CLR,,0.61,WeatherDisplay:10.37,2015-04-25 15:50:00,
2015-04-25 11:55:00,63.9,63.6,29.74,SSW,202,5.8,5.8,99,0.00,CLR,,0.61,WeatherDisplay:10.37,2015-04-25 15:55:00,
2015-04-25 12:00:00,64.0,63.7,29.74,SE,135,4.6,4.6,99,0.00,CLR,,0.61,WeatherDisplay:10.37,2015-04-25 16:00:00,
2015-04-25 12:05:00,64.6,64.3,29.73,East,90,5.8,5.8,99,0.00,CLR,,0.61,WeatherDisplay:10.37,2015-04-25 16:05:00,
2015-04-25 12:10:00,64.8,64.5,29.73,SW,225,6.9,6.9,99,0.00,CLR,,0.61,WeatherDisplay:10.37,2015-04-25 16:10:00,
2015-04-25 12:15:00,65.3,65.0,29.73,SSE,158,5.8,5.8,99,0.00,CLR,,0.61,WeatherDisplay:10.37,2015-04-25 16:15:00,
2015-04-25 12:20:00,66.2,65.9,29.73,SW,225,3.7,3.7,99,0.00,CLR,,0.61,WeatherDisplay:10.37,2015-04-25 16:20:00,
2015-04-25 12:25:00,66.4,66.1,29.73,ESE,112,3.5,3.5,99,0.00,CLR,,0.61,WeatherDisplay:10.37,2015-04-25 16:25:00,
2015-04-25 12:30:00,67.1,66.8,29.72,WSW,248,4.6,4.6,99,0.00,CLR,,0.61,WeatherDisplay:10.37,2015-04-25 16:30:00,